Location: Chabot Space and Science Center
(37.8191°N, 122.1819°W)
Time: 08:31:47
(UTC-08:00)

N. Korean satellite - Visible Passes

Search period start: 03 December 2021 00:00
Search period end: 13 December 2021 00:00
Orbit: 447 x 495 km, 97.3° (Epoch: 02 December)

Date Brightness Start Highest point End Pass type
(mag) Time Alt. Az. Time Alt. Az. Time Alt. Az.
03 Dec 6.9 05:12:37 10° NNE 05:15:57 60° E 05:19:16 10° S visible
03 Dec 9.2 17:18:11 10° SSW 17:21:08 24° W 17:24:05 10° NW visible
04 Dec 8.9 04:44:37 10° NE 04:47:22 23° E 04:50:06 10° SSE visible
04 Dec 8.0 06:18:15 10° NNW 06:20:21 16° WNW 06:22:28 10° WSW visible
05 Dec 6.9 05:48:52 10° N 05:52:01 37° WNW 05:55:09 10° SW visible
06 Dec 6.4 05:20:10 10° NNE 05:23:33 80° ESE 05:26:55 10° S visible
06 Dec 9.6 17:26:10 10° SW 17:28:46 19° W 17:31:22 10° NW visible
07 Dec 8.4 04:51:58 10° NE 04:54:58 29° E 04:57:57 10° SSE visible
07 Dec 8.2 06:26:18 10° NW 06:27:52 13° WNW 06:29:25 10° W visible
08 Dec 9.8 04:24:50 10° ENE 04:26:16 12° E 04:27:42 10° ESE visible
08 Dec 7.2 05:56:33 10° NNW 05:59:31 29° WNW 06:02:29 10° SW visible
09 Dec 6.2 05:27:40 10° N 05:31:03 78° WNW 05:34:26 10° SSW visible
09 Dec 9.7 17:34:11 10° SW 17:36:20 15° W 17:38:28 10° NW visible
10 Dec 7.9 05:00:18 17° NE 05:02:28 37° E 05:05:39 10° SSE visible
10 Dec 8.4 06:34:49 10° WNW 06:35:16 10° WNW 06:35:43 10° WNW visible
11 Dec 9.5 04:32:06 12° ENE 04:33:46 15° E 04:35:52 10° SE visible
11 Dec 7.5 06:06:13 22° NW 06:06:54 23° WNW 06:09:40 10° SW visible
12 Dec 6.3 05:37:49 48° NNW 05:38:27 59° WNW 05:41:48 10° SSW visible
12 Dec 9.9 17:42:21 10° WSW 17:43:47 12° W 17:45:14 10° WNW visible
